Date String (YYYY-MM-DD hh:mm:ss) UTC,Instrument flags,Ambient pressure (hPa),Sample flow (lpm),Bypass flow (lpm),Sample temperature (°C),Ambient temperature (°C),ASC tube jacket temperature (°C),LED temperature (°C),Box temperature (°C),Sample RH (%),Span deviation,Mass concentration (μg/m³),Mass concentration (μg/m³),Mass concentration (μg/m³)
DateTimeUTC,F1_M11,P_M11,Q1_M11,Q2_M11,T1_M11,T2_M11,T3_M11,T4_M11,T5_M11,U1_M11,ZSPAN_M11,X0_M11,X2_M11,X1_M11
2022-09-11 09:00:00,,0834.0,5.01,0.00,28.0,26.4,00.0,36.7,29.8,24.3,0001.9,0007.35,0005.13,0004.99
2022-09-11 09:01:00,,0834.0,5.00,0.00,28.0,26.4,00.0,36.7,29.8,24.3,0001.7,0007.38,0005.15,0005.01
2022-09-11 09:02:00,,0834.0,5.00,0.00,28.0,26.4,00.0,36.7,29.8,24.1,0001.1,0007.36,0005.15,0005.02
2022-09-11 09:03:00,,0834.0,5.00,0.00,28.0,26.4,00.0,36.7,29.8,24.0,0000.5,0007.47,0005.18,0005.04
2022-09-11 09:04:00,,0834.0,5.00,0.00,28.0,26.4,00.0,36.7,29.8,23.8,0001.2,0007.51,0005.18,0005.05
2022-09-11 09:05:00,,0834.0,5.00,0.00,28.0,26.3,00.0,36.7,29.8,23.7,0000.7,0007.64,0005.20,0005.05
2022-09-11 09:06:00,,0834.0,5.00,0.00,27.9,26.3,00.0,36.7,29.8,23.6,0000.7,0007.64,0005.20,0005.06
2022-09-11 09:07:00,,0834.0,5.00,0.00,27.9,26.4,00.0,36.7,29.8,23.5,0000.8,0007.60,0005.20,0005.06
2022-09-11 09:08:00,,0834.0,4.98,0.00,27.9,26.3,00.0,36.7,29.8,23.4,0000.6,0007.44,0005.20,0005.06
2022-09-11 09:09:00,,0834.0,5.01,0.00,27.9,26.3,00.0,36.7,29.8,23.3,0000.0,0007.42,0005.18,0005.06
2022-09-11 09:10:00,,0834.0,5.00,0.00,27.9,26.4,00.0,36.7,29.8,23.2,0000.0,0007.47,0005.19,0005.07
2022-09-11 09:11:00,,0833.9,5.00,0.00,27.9,26.3,00.0,36.7,29.8,23.2,0000.0,0007.47,0005.20,0005.08
2022-09-11 09:12:00,,0834.0,5.01,0.00,27.9,26.3,00.0,36.7,29.8,23.2,0000.0,0007.46,0005.19,0005.08
2022-09-11 09:13:00,,0834.0,4.99,0.00,27.9,26.3,00.0,36.7,29.8,23.2,0000.0,0007.47,0005.19,0005.07
2022-09-11 09:14:00,,0833.9,5.00,0.00,27.9,26.2,00.0,36.7,29.8,23.3,0000.0,0007.35,0005.16,0005.07
2022-09-11 09:15:00,,0833.9,5.00,0.00,27.9,26.2,00.0,36.7,29.7,23.3,0000.0,0007.25,0005.15,0005.07
2022-09-11 09:16:00,,0833.9,5.00,0.00,27.9,26.2,00.0,36.7,29.7,23.3,0000.0,0007.07,0005.14,0005.06
2022-09-11 09:17:00,,0833.9,5.00,0.00,27.9,26.2,00.0,36.7,29.7,23.3,0000.0,0007.18,0005.17,0005.06
2022-09-11 09:18:00,,0833.9,5.00,0.00,27.9,26.2,00.0,36.7,29.7,23.4,0000.0,0007.20,0005.17,0005.06
2022-09-11 09:19:00,,0833.9,5.00,0.00,27.8,26.1,00.0,36.7,29.7,23.4,0000.0,0007.21,0005.18,0005.06
2022-09-11 09:20:00,,0833.9,5.01,0.00,27.8,26.0,00.0,36.6,29.7,23.4,0000.0,0007.19,0005.17,0005.05
2022-09-11 09:21:00,,0833.9,5.00,0.00,27.8,26.0,00.0,36.6,29.6,23.4,0000.0,0007.20,0005.17,0005.04
2022-09-11 09:22:00,,0833.9,5.00,0.00,27.8,25.9,00.0,36.6,29.6,23.5,0000.0,0007.21,0005.18,0005.04
2022-09-11 09:23:00,,0833.9,4.99,0.00,27.7,25.7,00.0,36.6,29.5,23.6,0000.0,0007.20,0005.16,0005.03
2022-09-11 09:24:00,,0833.9,5.00,0.00,27.7,25.7,00.0,36.6,29.4,23.7,0000.0,0007.24,0005.15,0005.01
2022-09-11 09:25:00,,0833.9,5.00,0.00,27.7,25.7,00.0,36.6,29.4,23.8,0000.0,0007.25,0005.15,0005.00
2022-09-11 09:26:00,,0833.9,4.99,0.00,27.6,25.5,00.0,36.5,29.3,24.0,0000.0,0007.31,0005.15,0004.98
2022-09-11 09:27:00,,0833.9,4.99,0.00,27.5,25.4,00.0,36.5,29.2,25.4,0000.0,0007.22,0005.13,0004.97
2022-09-11 09:28:00,,0833.9,4.99,0.00,27.5,25.5,00.0,36.5,29.2,25.3,0000.0,0007.15,0005.09,0004.95
2022-09-11 09:29:00,,0833.9,5.00,0.00,27.5,25.4,00.0,36.4,29.1,24.3,0000.0,0007.12,0005.07,0004.94
2022-09-11 09:30:00,,0833.9,5.01,0.00,27.4,25.3,00.0,36.4,29.1,24.1,0000.0,0007.16,0005.07,0004.93
2022-09-11 09:31:00,,0833.9,5.00,0.00,27.4,25.2,00.0,36.4,29.0,24.1,0000.0,0007.15,0005.06,0004.91
2022-09-11 09:32:00,,0833.9,5.00,0.00,27.3,25.3,00.0,36.3,29.0,24.2,0000.0,0007.13,0005.04,0004.88
2022-09-11 09:33:00,,0833.9,5.00,0.00,27.3,25.3,00.0,36.3,29.1,24.3,0000.0,0007.08,0005.02,0004.85
2022-09-11 09:34:00,,0833.9,5.00,0.00,27.3,25.4,00.0,36.3,29.1,24.2,0000.0,0007.07,0004.99,0004.82
2022-09-11 09:35:00,,0833.9,4.99,0.00,27.3,25.4,00.0,36.2,29.0,24.3,0000.0,0006.97,0004.97,0004.81
2022-09-11 09:36:00,,0833.9,5.00,0.00,27.3,25.4,00.0,36.2,29.0,24.2,0000.0,0006.89,0004.95,0004.79
2022-09-11 09:37:00,,0833.9,5.00,0.00,27.3,25.4,00.0,36.2,29.0,24.2,0000.0,0006.85,0004.93,0004.78
2022-09-11 09:38:00,,0834.0,4.98,0.00,27.3,25.5,00.0,36.2,29.0,24.2,0000.0,0006.92,0004.93,0004.77
2022-09-11 09:39:00,,0834.0,5.01,0.00,27.3,25.5,00.0,36.2,29.0,24.2,0000.0,0006.88,0004.92,0004.77
2022-09-11 09:40:00,,0834.1,5.00,0.00,27.3,25.5,00.0,36.2,29.0,24.3,0000.0,0006.82,0004.90,0004.74
2022-09-11 09:41:00,,0834.0,5.01,0.00,27.2,25.5,00.0,36.1,29.0,24.3,0000.0,0006.81,0004.89,0004.73
2022-09-11 09:42:00,,0834.0,4.99,0.00,27.2,25.5,00.0,36.1,29.0,24.3,0000.0,0006.74,0004.87,0004.72
2022-09-11 09:43:00,,0834.0,5.01,0.00,27.2,25.5,00.0,36.1,29.0,24.3,0000.0,0006.70,0004.88,0004.74
2022-09-11 09:44:00,,0834.0,5.00,0.00,27.2,25.4,00.0,36.1,28.9,24.4,0000.0,0006.83,0004.90,0004.75
2022-09-11 09:45:00,,0834.0,5.00,0.00,27.2,25.4,00.0,36.1,28.9,24.4,0000.0,0006.95,0004.94,0004.77
2022-09-11 09:46:00,,0834.0,4.99,0.00,27.2,25.5,00.0,36.1,29.0,24.4,0000.0,0007.08,0004.96,0004.78
2022-09-11 09:47:00,,0834.1,5.00,0.00,27.2,25.6,00.0,36.1,29.0,24.4,0000.0,0007.19,0004.99,0004.79
2022-09-11 09:48:00,,0834.0,5.00,0.00,27.2,25.6,00.0,36.1,29.1,24.3,0000.0,0007.17,0004.99,0004.80
2022-09-11 09:49:00,,0834.0,5.01,0.00,27.2,25.6,00.0,36.0,29.1,24.3,0000.0,0007.16,0005.00,0004.81
2022-09-11 09:50:00,,0834.0,4.98,0.00,27.2,25.7,00.0,36.0,29.1,24.2,0000.0,0007.15,0005.02,0004.84
2022-09-11 09:51:00,,0834.0,5.01,0.00,27.3,25.7,00.0,36.0,29.1,24.2,0000.0,0007.20,0005.04,0004.86
2022-09-11 09:52:00,,0834.0,5.00,0.00,27.3,25.7,00.0,36.0,29.1,24.2,0000.0,0007.14,0005.04,0004.88
2022-09-11 09:53:00,,0834.0,4.98,0.00,27.3,25.7,00.0,36.0,29.1,24.2,0000.0,0007.22,0005.07,0004.90
2022-09-11 09:54:00,,0834.0,5.01,0.00,27.3,25.7,00.0,36.0,29.1,24.2,0000.0,0007.28,0005.09,0004.91
2022-09-11 09:55:00,,0834.0,5.01,0.00,27.3,25.7,00.0,36.0,29.1,24.1,0000.0,0007.18,0005.08,0004.91
2022-09-11 09:56:00,,0834.0,4.99,0.00,27.3,25.6,00.0,36.0,29.1,24.1,0000.7,0007.17,0005.10,0004.93
2022-09-11 09:57:00,,0834.0,5.01,0.00,27.3,25.7,00.0,36.0,29.1,24.1,0000.0,0007.04,0005.09,0004.93
2022-09-11 09:58:00,,0834.0,5.01,0.00,27.3,25.5,00.0,36.0,29.1,24.1,0000.0,0006.95,0005.08,0004.93
2022-09-11 09:59:00,,0834.0,5.00,0.00,27.2,25.4,00.0,36.0,29.0,24.1,0000.0,0006.97,0005.09,0004.94
